WGS F1 (USA 195)

Last updated on Sun Apr 12 2026 00:02:51 GMT+0000 (Coordinated Universal Time)

1 32258U 07046A 26101.44094831 -.00000265 00000+0 00000+0 0 9992 2 32258 0.0747 81.9751 0000051 230.1810 3.7626 1.00272128 51667
UTC large
Height (km)
Speed (km/s)
/
Latitude / Longitude
Inclination (degrees)
Orbital Period (minutes)
Azimuth
Elevation
Range (km)
Doppler Factor

Next 0 passes for location: London (51.5072 / 0.1276)

Sorry there are no passes over London.
WGS F1 (USA 195)